Weather History for KAUN - June, 2012

Change the Weather History Date:

Friday, June 29, 2012

  Actual Average Record
Temperature  
Mean Temperature 70 °F -  
Max Temperature 82 °F 87 °F 104 °F (1976)
Min Temperature 59 °F 58 °F 47 °F (1949)
Cooling Degree Days 6    
Growing Degree Days 20 (Base 50)    
Moisture  
Dew Point 48 °F    
Average Humidity 45    
Maximum Humidity 64    
Minimum Humidity 30    
Precipitation  
Precipitation 0.00 in - - ()
Sea Level Pressure  
Sea Level Pressure 30.04 in    
Wind  
Wind Speed 6 mph (SSE)    
Max Wind Speed 10 mph    
Max Gust Speed -    
Visibility 10 miles    
Events      
Averages and records for this station are not official NWS values.
T = Trace of Precipitation, MM = Missing Value Source: NWS Daily Summary

Daily Weather History Graph

Daily Weather History Graph

Search for Another Location

Airport or City:

Trip Planner

Search our weather history database for the weather conditions in past years. The results will help you decide how hot, cold, wet, or windy it might be!

Date:

Astronomy

Jun. 29, 2012 Rise Set
Actual Time 5:41 AM PDT 8:33 PM PDT
Civil Twilight 5:09 AM PDT 9:05 PM PDT
Nautical Twilight 4:29 AM PDT 9:46 PM PDT
Astronomical Twilight 3:43 AM PDT 10:32 PM PDT
Moon 4:26 PM PDT (6/29) 1:55 AM PDT (6/29)
Length of Visible Light 15h 55m
Length of Day
14h 52m
Waxing Gibbous, 79% of the Moon is Illuminated
Jun 29
Waxing Gibbous
Jul 3
Full
Jul 10
Last Quarter
Jul 18
New
Jul 26
First Quarter

Hourly Weather History & Observations

Time (PDT) Temp. Dew Point Humidity Pressure Visibility Wind Dir Wind Speed Gust Speed Precip Events Conditions
12:15 AM 66.2 °F 42.8 °F 43% 30.05 in 10.0 mi ESE 5.8 mph - N/A   Clear
12:35 AM 66.2 °F 42.8 °F 43% 30.06 in 10.0 mi SE 4.6 mph - N/A   Clear
12:55 AM 66.2 °F 42.8 °F 43% 30.06 in 10.0 mi ESE 6.9 mph - N/A   Clear
1:15 AM 66.2 °F 41.0 °F 40% 30.05 in 10.0 mi SSE 3.5 mph - N/A   Clear
1:35 AM 66.2 °F 44.6 °F 46% 30.04 in 10.0 mi ESE 9.2 mph - N/A   Clear
1:55 AM 64.4 °F 46.4 °F 52% 30.04 in 10.0 mi ESE 10.4 mph - N/A   Clear
2:15 AM 64.4 °F 46.4 °F 52% 30.04 in 10.0 mi East 10.4 mph - N/A   Clear
2:35 AM 64.4 °F 46.4 °F 52% 30.03 in 10.0 mi ESE 9.2 mph - N/A   Clear
2:55 AM 64.4 °F 46.4 °F 52% 30.03 in 10.0 mi ESE 8.1 mph - N/A   Clear
3:15 AM 64.4 °F 46.4 °F 52% 30.03 in 10.0 mi ESE 4.6 mph - N/A   Clear
3:35 AM 62.6 °F 46.4 °F 55% 30.04 in 10.0 mi Calm Calm - N/A   Clear
3:55 AM 60.8 °F 46.4 °F 59% 30.04 in 10.0 mi SSE 5.8 mph - N/A   Clear
4:15 AM 60.8 °F 46.4 °F 59% 30.04 in 10.0 mi SE 6.9 mph - N/A   Clear
4:35 AM 60.8 °F 46.4 °F 59% 30.04 in 10.0 mi ESE 5.8 mph - N/A   Clear
4:55 AM 60.8 °F 46.4 °F 59% 30.04 in 10.0 mi ESE 5.8 mph - N/A   Clear
5:15 AM 60.8 °F 46.4 °F 59% 30.04 in 10.0 mi SE 5.8 mph - N/A   Clear
5:35 AM 60.8 °F 46.4 °F 59% 30.04 in 10.0 mi SE 4.6 mph - N/A   Clear
5:55 AM 59.0 °F 46.4 °F 63% 30.05 in 10.0 mi East 6.9 mph - N/A   Clear
6:15 AM 60.8 °F 46.4 °F 59% 30.04 in 10.0 mi SE 4.6 mph - N/A   Clear
6:35 AM 62.6 °F 46.4 °F 55% 30.05 in 10.0 mi ESE 8.1 mph - N/A   Clear
6:55 AM 62.6 °F 46.4 °F 55% 30.05 in 10.0 mi East 9.2 mph - N/A   Clear
7:15 AM 64.4 °F 46.4 °F 52% 30.05 in 10.0 mi ESE 9.2 mph - N/A   Clear
7:55 AM 68.0 °F 48.2 °F 49% 30.06 in 10.0 mi SE 5.8 mph - N/A   Clear
8:15 AM 69.8 °F 46.4 °F 43% 30.06 in 10.0 mi ESE 6.9 mph - N/A   Clear
8:35 AM 69.8 °F 46.4 °F 43% 30.06 in 10.0 mi ESE 8.1 mph - N/A   Clear
9:15 AM 73.4 °F 46.4 °F 38% 30.07 in 10.0 mi SSE 6.9 mph - N/A   Clear
9:35 AM 73.4 °F 46.4 °F 38% 30.07 in 10.0 mi SSE 4.6 mph - N/A   Clear
9:55 AM 73.4 °F 46.4 °F 38% 30.07 in 10.0 mi SSW 6.9 mph - N/A   Clear
10:15 AM 75.2 °F 46.4 °F 36% 30.07 in 10.0 mi Calm Calm - N/A   Clear
10:35 AM 75.2 °F 48.2 °F 38% 30.07 in 10.0 mi SW 5.8 mph - N/A   Clear
10:55 AM 75.2 °F 53.6 °F 47% 30.07 in 10.0 mi SW 8.1 mph - N/A   Clear
11:15 AM 75.2 °F 55.4 °F 50% 30.08 in 10.0 mi SW 6.9 mph - N/A   Clear
11:35 AM 75.2 °F 53.6 °F 47% 30.08 in 10.0 mi SW 8.1 mph - N/A   Clear
11:55 AM 75.2 °F 53.6 °F 47% 30.09 in 10.0 mi SW 6.9 mph - N/A   Clear
12:15 PM 75.2 °F 53.6 °F 47% 30.09 in 10.0 mi SSW 6.9 mph - N/A   Clear
12:35 PM 77.0 °F 53.6 °F 44% 30.09 in 10.0 mi SW 4.6 mph - N/A   Clear
12:55 PM 77.0 °F 53.6 °F 44% 30.09 in 10.0 mi SSW 6.9 mph - N/A   Clear
1:15 PM 78.8 °F 51.8 °F 39% 30.08 in 10.0 mi SSW 4.6 mph - N/A   Clear
1:55 PM 80.6 °F 48.2 °F 32% 30.07 in 10.0 mi SSW 8.1 mph - N/A   Clear
3:35 PM 82.4 °F 48.2 °F 30% 30.05 in 10.0 mi South 9.2 mph - N/A   Clear
4:15 PM 82.4 °F 48.2 °F 30% 30.04 in 6.0 mi SW 6.9 mph - N/A   Clear
4:35 PM 82.4 °F 48.2 °F 30% 30.04 in 10.0 mi South 6.9 mph - N/A   Clear
4:55 PM 82.4 °F 48.2 °F 30% 30.03 in 10.0 mi SW 8.1 mph - N/A   Clear
5:15 PM 82.4 °F 48.2 °F 30% 30.03 in 10.0 mi SW 9.2 mph - N/A   Clear
5:35 PM 82.4 °F 48.2 °F 30% 30.03 in 10.0 mi SW 8.1 mph - N/A   Clear
5:55 PM 82.4 °F 48.2 °F 30% 30.02 in 10.0 mi SSW 6.9 mph - N/A   Clear
6:15 PM 82.4 °F 48.2 °F 30% 30.02 in 10.0 mi SSW 5.8 mph - N/A   Clear
6:35 PM 82.4 °F 48.2 °F 30% 30.02 in 10.0 mi SW 4.6 mph - N/A   Clear
6:55 PM 80.6 °F 50.0 °F 34% 30.01 in 10.0 mi SSW 6.9 mph - N/A   Clear
7:15 PM 80.6 °F 50.0 °F 34% 30.01 in 10.0 mi SSW 5.8 mph - N/A   Clear
7:35 PM 78.8 °F 48.2 °F 34% 30.01 in 10.0 mi SSW 8.1 mph - N/A   Clear
7:55 PM 78.8 °F 48.2 °F 34% 30.01 in 10.0 mi South 6.9 mph - N/A   Clear
8:15 PM 77.0 °F 48.2 °F 36% 30.01 in 10.0 mi South 5.8 mph - N/A   Clear
8:35 PM 75.2 °F 48.2 °F 38% 30.01 in 10.0 mi SSW 5.8 mph - N/A   Clear
8:55 PM 73.4 °F 50.0 °F 44% 30.01 in 10.0 mi South 5.8 mph - N/A   Clear
9:35 PM 71.6 °F 51.8 °F 50% 30.01 in 10.0 mi South 4.6 mph - N/A   Clear
9:55 PM 69.8 °F 51.8 °F 53% 30.02 in 10.0 mi SSE 5.8 mph - N/A   Clear
10:35 PM 69.8 °F 51.8 °F 53% 30.02 in 10.0 mi SE 6.9 mph - N/A   Clear
10:55 PM 69.8 °F 51.8 °F 53% 30.02 in 10.0 mi SE 5.8 mph - N/A   Clear
11:15 PM 68.0 °F 51.8 °F 56% 30.02 in 10.0 mi SE 6.9 mph - N/A   Clear
11:55 PM 66.2 °F 53.6 °F 64% 30.02 in 10.0 mi SE 5.8 mph - N/A   Clear